Warwick, RI

8:39 AM EDT on August 26, 2016 (GMT -0400)
Green State

Weather History for KPVD - November, 2012

Change the Weather History Date:

Sunday, November 11, 2012

  Actual Average Record
Temperature  
Mean Temperature 53 °F 46 °F  
Max Temperature 64 °F 55 °F 68 °F (1966)
Min Temperature 41 °F 37 °F 16 °F (1956)
Degree Days  
Heating Degree Days 12 19  
Month to date heating degree days 227 194  
Since 1 July heating degree days 571 652  
Cooling Degree Days 0 0  
Month to date cooling degree days 0 0  
Year to date cooling degree days 834 744  
Moisture  
Dew Point 44 °F    
Average Humidity 70    
Maximum Humidity 93    
Minimum Humidity 46    
Precipitation  
Precipitation 0.00 in 0.15 in 1.93 in (1991)
Month to date precipitation 0.42 1.56  
Year to date precipitation 35.15 40.01  
Snow  
Snow 0.00 in 0.00 in 0.70 in (1987)
Month to date snowfall 1.3 0.2  
Since 1 July snowfall 1.3 0.2  
Since 1 September snowfall 1.3 0.2  
Snow Depth 0.00 in    
Sea Level Pressure  
Sea Level Pressure 30.49 in    
Wind  
Wind Speed 6 mph (SSW)    
Max Wind Speed 16 mph    
Max Gust Speed 20 mph    
Visibility 10 miles    
Events      
T = Trace of Precipitation, MM = Missing Value Source: NWS Daily Summary

Daily Weather History Graph

Daily Weather History Graph

Search for Another Location

Airport or City:

Trip Planner

Search our weather history database for the weather conditions in past years. The results will help you decide how hot, cold, wet, or windy it might be!

Date:

Astronomy

Nov. 11, 2012 Rise Set
Actual Time 6:30 AM EST 4:28 PM EST
Civil Twilight 6:00 AM EST 4:58 PM EST
Nautical Twilight 5:27 AM EST 5:31 PM EST
Astronomical Twilight 4:54 AM EST 6:04 PM EST
Moon 3:39 AM EST (11/11) 2:51 PM EST (11/11)
Length of Visible Light 10h 57m
Length of Day
9h 57m
Waning Crescent, 7% of the Moon is Illuminated
Nov 11
Waning Crescent
Nov 13
New
Nov 20
First Quarter
Nov 28
Full
Dec 6
Last Quarter

Hourly Weather History & Observations

Time (EST) Temp. Dew Point Humidity Pressure Visibility Wind Dir Wind Speed Gust Speed Precip Events Conditions
12:51 AM 42.1 °F 37.9 °F 85% 30.47 in 10.0 mi Calm Calm - N/A   Mostly Cloudy
1:51 AM 42.1 °F 37.9 °F 85% 30.47 in 10.0 mi Calm Calm - N/A   Overcast
2:51 AM 43.0 °F 39.0 °F 86% 30.46 in 10.0 mi Calm Calm - N/A   Overcast
3:51 AM 44.1 °F 39.9 °F 85% 30.47 in 10.0 mi Calm Calm - N/A   Overcast
4:51 AM 42.1 °F 39.0 °F 89% 30.51 in 10.0 mi Calm Calm - N/A   Mostly Cloudy
5:51 AM 44.1 °F 39.9 °F 85% 30.49 in 10.0 mi Calm Calm - N/A   Overcast
6:51 AM 42.1 °F 39.0 °F 89% 30.51 in 9.0 mi Calm Calm - N/A   Scattered Clouds
7:51 AM 46.9 °F 41.0 °F 80% 30.52 in 10.0 mi Calm Calm - N/A   Scattered Clouds
8:51 AM 51.1 °F 43.0 °F 74% 30.51 in 10.0 mi SSE 4.6 mph - N/A   Scattered Clouds
9:51 AM 57.0 °F 46.0 °F 67% 30.51 in 10.0 mi SSW 12.7 mph - N/A   Mostly Cloudy
10:51 AM 59.0 °F 46.0 °F 62% 30.50 in 10.0 mi SSW 9.2 mph - N/A   Mostly Cloudy
11:51 AM 62.1 °F 42.1 °F 48% 30.47 in 10.0 mi South 10.4 mph - N/A   Scattered Clouds
12:51 PM 62.1 °F 41.0 °F 46% 30.46 in 10.0 mi SW 12.7 mph - N/A   Mostly Cloudy
1:51 PM 61.0 °F 43.0 °F 52% 30.45 in 10.0 mi SSW 8.1 mph - N/A   Scattered Clouds
2:51 PM 62.1 °F 44.1 °F 52% 30.45 in 10.0 mi SW 12.7 mph - N/A   Scattered Clouds
3:51 PM 59.0 °F 44.1 °F 58% 30.45 in 10.0 mi SSW 11.5 mph - N/A   Scattered Clouds
4:51 PM 55.9 °F 46.0 °F 69% 30.47 in 10.0 mi SSW 10.4 mph - N/A   Partly Cloudy
5:51 PM 52.0 °F 46.9 °F 83% 30.49 in 10.0 mi South 6.9 mph - N/A   Partly Cloudy
6:51 PM 53.1 °F 48.9 °F 86% 30.49 in 10.0 mi South 8.1 mph - N/A   Clear
7:51 PM 50.0 °F 48.0 °F 93% 30.49 in 9.0 mi South 5.8 mph - N/A   Clear
8:51 PM 50.0 °F 48.0 °F 93% 30.50 in 8.0 mi South 4.6 mph - N/A   Clear
9:51 PM 51.1 °F 48.9 °F 92% 30.50 in 8.0 mi SSW 5.8 mph - N/A   Partly Cloudy
10:51 PM 51.1 °F 48.9 °F 92% 30.50 in 10.0 mi SW 5.8 mph - N/A   Clear
11:51 PM 50.0 °F 46.9 °F 89% 30.50 in 10.0 mi South 5.8 mph - N/A   Clear